Weather History for Vero Beach, FL

Change the Weather History Date:

Wednesday, October 23, 2013

  Actual Average Record
Temperature  
Mean Temperature 75 °F 75 °F  
Max Temperature 83 °F 83 °F 90 °F (1990)
Min Temperature 66 °F 67 °F 50 °F (1976)
Degree Days  
Heating Degree Days 0 0  
Month to date heating degree days 0 0  
Since 1 July heating degree days 0 0  
Cooling Degree Days 10 10  
Month to date cooling degree days 289 286  
Year to date cooling degree days 3147 3053  
Growing Degree Days 24 (Base 50)    
Moisture  
Dew Point 70 °F    
Average Humidity 79    
Maximum Humidity 100    
Minimum Humidity 58    
Precipitation  
Precipitation 0.00 in 0.13 in 1.20 in (1971)
Month to date precipitation 0.52 3.98  
Year to date precipitation 34.82 45.47  
Sea Level Pressure  
Sea Level Pressure 29.88 in    
Wind  
Wind Speed 7 mph (NW)    
Max Wind Speed 16 mph    
Max Gust Speed 21 mph    
Visibility 10 miles    
Events      
T = Trace of Precipitation, MM = Missing Value Source: NWS Daily Summary

Daily Weather History Graph

Daily Weather History Graph

Search for Another Location

Airport:

Trip Planner

Search our weather history database for the weather conditions in past years. The results will help you decide how hot, cold, wet, or windy it might be!

Date:

Astronomy

Oct. 23, 2013 Rise Set
Actual Time 7:26 AM EDT 6:44 PM EDT
Civil Twilight 7:02 AM EDT 7:08 PM EDT
Nautical Twilight 6:35 AM EDT 7:35 PM EDT
Astronomical Twilight 6:08 AM EDT 8:03 PM EDT
Moon 10:27 PM EDT (10/23) 11:29 AM EDT (10/23)
Length of Visible Light 12h 05m
Length of Day
11h 18m
Waning Gibbous, 79% of the Moon is Illuminated
Oct 23
Waning Gibbous
Oct 26
Last Quarter
Nov 3
New
Nov 10
First Quarter
Nov 17
Full

Hourly Weather History & Observations

Time (EDT) Temp. Heat Index Dew Point Humidity Pressure Visibility Wind Dir Wind Speed Gust Speed Precip Events Conditions
12:53 AM 75.0 °F - 73.9 °F 96% 29.85 in 10.0 mi Calm Calm - N/A   Clear
1:53 AM 75.9 °F - 73.9 °F 94% 29.84 in 10.0 mi WSW 4.6 mph - N/A   Scattered Clouds
2:01 AM 75.2 °F - 73.4 °F 94% 29.84 in 10.0 mi SW 5.8 mph - N/A   Mostly Cloudy
2:39 AM 75.2 °F - 73.4 °F 94% 29.83 in 10.0 mi West 8.1 mph - N/A   Mostly Cloudy
2:53 AM 75.9 °F - 73.9 °F 94% 29.82 in 10.0 mi West 6.9 mph - N/A   Partly Cloudy
3:53 AM 73.9 °F - 73.9 °F 100% 29.82 in 10.0 mi WSW 5.8 mph - N/A   Clear
4:53 AM 73.9 °F - 73.9 °F 100% 29.82 in 10.0 mi WSW 5.8 mph - N/A   Overcast
5:53 AM 73.9 °F - 73.0 °F 97% 29.85 in 10.0 mi West 6.9 mph - N/A   Overcast
6:53 AM 73.9 °F - 73.0 °F 97% 29.86 in 10.0 mi West 6.9 mph - N/A   Mostly Cloudy
7:53 AM 73.0 °F - 73.0 °F 100% 29.86 in 10.0 mi West 6.9 mph - N/A   Clear
8:37 AM 75.2 °F - 73.4 °F 94% 29.87 in 10.0 mi West 11.5 mph - N/A   Mostly Cloudy
8:50 AM 75.2 °F - 73.4 °F 94% 29.87 in 10.0 mi West 11.5 mph - N/A   Scattered Clouds
8:53 AM 75.9 °F - 72.0 °F 87% 29.87 in 10.0 mi West 10.4 mph - N/A   Scattered Clouds
9:53 AM 80.1 °F 83.6 °F 71.1 °F 74% 29.88 in 10.0 mi WNW 10.4 mph - N/A   Clear
10:53 AM 81.0 °F 84.9 °F 71.1 °F 72% 29.89 in 10.0 mi North 9.2 mph - N/A   Mostly Cloudy
11:53 AM 80.1 °F 83.6 °F 71.1 °F 74% 29.89 in 10.0 mi North 9.2 mph - N/A   Mostly Cloudy
12:00 PM 80.6 °F 84.6 °F 71.6 °F 74% 29.90 in 10.0 mi North 11.5 mph - N/A   Mostly Cloudy
12:53 PM 81.0 °F 84.4 °F 70.0 °F 69% 29.89 in 10.0 mi North 15.0 mph - N/A   Mostly Cloudy
1:53 PM 79.0 °F - 64.9 °F 62% 29.88 in 10.0 mi NNE 11.5 mph - N/A   Mostly Cloudy
2:53 PM 81.0 °F 83.0 °F 66.0 °F 60% 29.87 in 10.0 mi NNE 13.8 mph 17.3 mph N/A   Mostly Cloudy
3:53 PM 82.0 °F 84.1 °F 66.0 °F 58% 29.87 in 10.0 mi NE 11.5 mph - N/A   Mostly Cloudy
4:53 PM 79.0 °F - 66.0 °F 64% 29.88 in 10.0 mi NE 8.1 mph - N/A   Mostly Cloudy
5:53 PM 77.0 °F - 66.0 °F 69% 29.89 in 10.0 mi North 4.6 mph - N/A   Clear
6:53 PM 75.0 °F - 66.0 °F 73% 29.91 in 10.0 mi NNE 3.5 mph - N/A   Clear
7:53 PM 73.0 °F - 66.0 °F 79% 29.93 in 10.0 mi North 4.6 mph - N/A   Clear
8:53 PM 73.0 °F - 66.9 °F 81% 29.94 in 10.0 mi NNE 3.5 mph - N/A   Clear
9:53 PM 71.1 °F - 66.0 °F 84% 29.96 in 10.0 mi North 4.6 mph - N/A   Clear
10:53 PM 66.9 °F - 64.9 °F 93% 29.98 in 10.0 mi Calm Calm - N/A   Clear
11:53 PM 69.1 °F - 66.0 °F 90% 29.99 in 10.0 mi NW 6.9 mph - N/A   Clear